Date,TemperatureHighF,TemperatureAvgF,TemperatureLowF,DewpointHighF,DewpointAvgF,DewpointLowF,HumidityHigh,HumidityAvg,HumidityLow,PressureMaxIn,PressureMinIn,WindSpeedMaxMPH,WindSpeedAvgMPH,GustSpeedMaxMPH,PrecipitationSumIn
2013-1-1,34.0,29.2,17.0,27.6,18.2,6.6,78,64,49,29.90,29.65,5,2,21,0.00
2013-1-2,26.3,16.4,6.7,16.0,6.3,-4.6,76,64,54,30.09,29.88,3,1,15,0.00
2013-1-3,21.8,11.0,3.0,3.7,-1.4,-5.8,73,58,40,30.11,29.99,3,1,12,0.00
2013-1-4,36.8,22.4,4.7,24.4,14.8,0.6,88,73,59,29.98,29.76,4,1,10,0.00
2013-1-5,37.5,31.1,19.2,24.4,20.4,14.9,83,65,45,30.24,29.77,4,1,20,0.00
2013-1-6,40.5,28.3,18.6,29.5,24.4,14.7,90,86,64,30.21,29.90,3,0,7,0.01
2013-1-7,35.3,30.7,16.6,28.3,23.6,12.4,92,76,48,30.38,29.93,7,1,6,0.01
2013-1-8,44.2,27.5,15.0,29.0,20.4,11.3,92,77,51,30.35,30.21,9,1,4,0.14
2013-1-9,39.5,28.4,19.8,30.4,23.4,17.9,93,83,61,30.40,30.03,4,0,4,0.10
2013-1-10,43.8,41.3,39.1,31.4,27.9,25.3,66,59,52,30.40,29.96,7,3,21,0.25
2013-1-21,22.0,21.5,20.9,18.7,18.3,17.9,88,88,87,29.85,29.85,0,0,0,0.00
2013-1-22,25.2,19.8,11.2,19.3,11.0,-0.1,89,71,37,30.05,29.75,4,1,18,0.00
2013-1-23,11.4,7.7,2.4,3.2,-5.2,-11.8,78,56,38,30.13,30.03,11,1,10,0.00
2013-1-24,15.6,5.5,-1.1,-5.8,-10.5,-13.8,60,48,34,30.19,30.03,17,2,21,0.00
2013-1-25,20.7,13.4,6.3,2.9,-3.8,-7.2,58,46,32,30.27,30.06,12,2,17,0.00
2013-1-26,18.3,13.9,9.8,11.1,8.1,0.4,92,78,45,30.07,30.00,5,0,17,0.00
2013-1-27,27.2,18.7,12.4,4.6,0.4,-5.1,67,46,27,30.43,30.19,4,2,19,0.00
2013-1-28,29.0,21.8,14.2,21.5,10.7,-2.6,90,65,33,30.45,30.03,2,0,7,0.00
2013-1-29,34.1,27.7,23.4,30.9,24.8,20.9,91,89,82,30.18,30.02,2,0,2,0.12
2013-2-7,26.3,20.6,14.4,6.2,0.3,-4.7,55,41,25,30.52,30.26,3,1,13,0.00
2013-2-8,22.9,18.4,15.9,16.4,13.4,6.2,91,82,48,30.50,29.80,4,1,16,0.00
2013-2-9,21.5,17.9,14.3,19.5,15.6,10.9,93,91,86,30.14,29.62,5,3,23,0.00
2013-2-10,34.8,21.0,11.4,21.9,13.8,7.1,86,75,51,30.37,30.15,2,1,13,0.07
2013-2-11,32.9,23.6,12.3,31.8,21.0,7.9,96,90,81,30.34,29.60,1,0,3,0.00
2013-2-12,43.8,37.1,32.7,33.3,31.3,29.4,96,81,61,29.83,29.57,4,1,16,0.36
2013-2-13,41.8,33.5,26.3,29.4,25.4,23.5,90,73,52,29.84,29.72,2,0,10,0.10
2013-2-14,41.7,33.0,26.3,25.6,23.9,22.1,87,71,49,29.96,29.68,8,1,4,0.05
2013-2-15,50.7,34.4,20.7,34.0,27.3,18.2,98,77,51,29.98,29.86,9,1,0,0.01
2013-2-16,34.4,31.3,28.4,30.6,28.8,25.5,94,90,79,29.94,29.89,6,0,0,0.00
2013-2-18,31.2,21.9,14.2,7.2,3.2,-0.9,63,46,28,30.09,29.60,6,4,26,0.01
2013-2-19,42.5,31.9,20.5,37.9,18.3,0.5,95,59,36,30.13,29.59,3,1,10,0.31
2013-2-20,38.0,33.3,27.1,37.0,24.4,16.5,96,71,52,29.70,29.49,4,2,16,0.02
2013-2-21,29.5,25.9,22.7,16.5,14.2,11.6,70,61,51,30.11,29.72,5,2,19,0.00
2013-2-22,41.3,30.0,17.4,25.5,20.3,14.2,89,68,45,30.38,30.13,2,1,9,0.00
2013-2-23,38.2,33.4,29.4,32.8,28.9,25.1,94,84,71,30.33,29.98,2,0,7,0.01
2013-2-24,35.2,32.9,30.7,34.2,31.8,29.4,96,96,94,29.97,29.72,1,0,7,0.33
2013-2-25,40.3,33.4,29.4,36.2,31.1,28.1,96,91,76,30.15,29.88,3,0,3,0.45
2013-2-26,40.6,33.9,29.5,36.7,31.6,28.2,96,91,78,30.34,30.20,1,0,5,0.07
2013-2-27,37.5,36.5,31.2,36.5,35.1,29.7,96,95,86,30.20,29.60,1,1,7,0.19
2013-2-28,49.1,40.0,33.9,38.2,36.2,32.9,96,87,66,29.61,29.51,1,1,7,0.17
2013-3-1,40.6,36.4,33.8,33.8,31.9,29.7,100,84,72,29.66,29.52,1,0,8,0.00
2013-3-2,44.8,37.5,31.9,32.3,29.2,27.0,83,72,57,29.66,29.58,1,0,8,0.00
2013-3-3,41.5,34.9,30.1,35.0,29.6,26.3,92,81,68,29.63,29.54,9,1,9,0.06
2013-3-4,39.6,33.8,29.7,27.8,25.1,22.4,78,70,59,29.71,29.55,14,3,20,0.00
2013-3-5,46.0,36.0,29.5,33.7,26.5,22.4,75,69,56,29.97,29.71,9,1,11,0.00
2013-3-6,36.3,34.4,31.8,34.5,32.8,30.4,96,94,86,30.15,30.05,4,1,17,0.22
2013-3-7,35.7,32.5,31.3,32.1,29.3,26.9,95,88,81,30.13,30.02,8,2,10,0.13
2013-3-8,40.8,34.0,29.2,32.4,28.9,24.5,95,83,59,30.16,29.97,6,1,0,0.29
2013-3-9,45.7,34.8,28.2,25.5,22.5,20.4,76,61,44,30.24,30.15,6,0,0,0.11
2013-3-10,44.3,32.9,21.3,34.0,27.7,19.3,93,82,65,30.41,30.29,2,0,8,0.01
2013-3-11,51.9,40.5,28.7,38.9,33.2,27.2,95,77,48,30.32,30.13,4,1,9,0.00
2013-3-12,52.4,44.4,37.9,50.3,42.4,36.1,97,93,87,30.14,29.70,7,0,8,0.42
2013-3-13,53.9,45.8,37.7,50.0,39.0,30.2,97,79,45,29.73,29.67,10,2,10,0.02
2013-3-26,53.0,41.3,30.7,29.5,24.6,20.3,83,55,29,29.75,29.55,2,1,12,0.00
2013-3-27,56.2,42.2,29.3,34.0,26.8,21.6,79,56,34,29.85,29.72,4,1,16,0.00
2013-3-28,50.1,42.1,34.3,36.8,33.6,31.1,94,73,52,29.99,29.85,1,0,8,0.03
2013-3-29,60.5,45.9,36.8,38.3,33.5,30.4,80,63,41,30.02,29.95,2,1,10,0.00
2013-3-30,60.2,46.6,35.3,33.5,26.9,17.2,77,51,23,30.07,29.98,2,1,11,0.00
2013-3-31,59.8,43.2,24.7,39.1,25.6,21.0,86,55,25,30.11,29.83,5,2,16,0.00
2013-4-1,60.4,46.7,37.6,44.8,38.3,14.6,96,75,37,29.80,29.47,5,2,19,0.51
2013-4-2,39.6,33.5,28.5,17.0,13.9,10.6,57,45,32,29.88,29.73,7,2,16,1.65
2013-4-3,47.9,36.7,28.3,17.8,12.4,5.5,59,39,18,30.08,29.87,15,3,15,0.00
2013-4-4,56.9,41.2,28.7,22.5,15.7,10.2,60,38,18,30.26,30.00,9,2,11,0.00
2013-4-5,63.9,47.7,38.1,29.6,26.0,17.6,71,46,18,30.00,29.61,11,3,11,0.00
2013-4-6,46.9,37.0,29.1,23.2,11.0,4.9,55,36,20,30.31,29.83,5,3,25,0.00
2013-4-7,56.4,40.7,22.8,37.9,24.0,13.0,79,54,31,30.32,29.96,7,3,17,0.00
2013-4-8,66.1,49.7,37.7,41.3,37.4,33.5,95,67,31,30.09,29.92,4,1,17,0.00
2013-4-9,67.6,50.7,42.8,52.6,43.5,37.4,95,78,46,30.08,29.84,15,1,13,0.10
2013-4-10,60.0,48.5,44.1,50.8,44.9,41.2,96,88,71,30.00,29.86,4,0,0,0.19
2013-4-11,52.1,45.8,39.3,47.6,41.1,31.5,97,85,53,30.12,29.83,1,0,11,0.17
2013-4-12,40.5,36.2,34.1,37.3,33.0,27.3,96,88,59,30.19,29.84,2,1,10,0.46
2013-4-13,54.5,41.6,33.8,41.3,37.2,32.8,100,85,58,29.90,29.76,2,0,8,0.12
2013-4-14,54.7,45.6,38.7,39.7,35.5,30.2,95,70,44,30.17,29.90,3,1,12,0.01
2013-4-15,55.5,43.5,29.4,37.5,33.5,27.6,94,70,44,30.37,30.17,3,1,11,0.00
2013-4-16,68.0,49.7,31.6,50.8,40.4,30.1,96,73,46,30.39,30.00,8,3,22,0.00
2013-4-17,68.4,56.6,44.1,53.1,37.4,29.4,84,52,25,30.30,30.00,5,2,16,0.00
2013-4-18,59.2,46.5,31.1,41.4,34.1,28.6,91,65,39,30.43,30.15,9,1,9,0.00
2013-4-19,75.9,60.5,51.8,59.7,52.3,39.1,94,75,56,30.15,29.74,16,3,16,0.00
2013-4-20,68.0,54.5,44.6,63.2,42.5,25.0,95,68,38,30.13,29.56,6,2,16,0.48
2013-4-21,58.3,43.2,30.8,29.5,24.0,20.2,78,49,23,30.66,30.15,3,1,16,0.00
2013-4-22,52.1,39.9,28.4,34.8,28.5,22.6,90,67,34,30.78,30.61,3,1,13,0.00
2013-4-23,41.1,37.0,31.4,39.8,34.3,28.6,95,90,83,30.62,30.32,5,0,5,0.03
2013-4-24,74.7,54.9,40.8,54.7,47.0,39.8,96,77,46,30.18,29.75,4,1,13,0.01
2013-4-25,67.0,57.1,44.6,51.2,37.9,26.9,91,53,25,30.23,29.77,5,2,16,0.02
2013-4-26,60.8,47.6,32.5,38.9,33.2,28.2,85,60,35,30.41,30.24,3,1,11,0.00
2013-4-27,66.0,50.3,32.2,42.5,35.8,30.4,95,63,34,30.41,30.27,2,1,10,0.00
2013-4-28,68.5,51.4,34.0,42.8,37.0,31.6,93,62,35,30.33,30.21,3,1,12,0.00
2013-4-29,70.2,51.8,37.8,49.8,41.0,34.9,90,70,40,30.25,30.15,7,1,0,0.00
2013-4-30,71.9,56.3,38.5,39.5,34.1,29.8,85,48,24,30.34,30.22,2,1,9,0.00
2013-5-1,72.2,54.0,33.2,40.7,34.4,30.3,91,54,25,30.45,30.35,2,1,8,0.00
2013-5-2,77.2,52.8,37.4,47.2,39.3,34.7,91,65,24,30.49,30.34,3,1,14,0.00
2013-5-3,63.4,49.8,37.5,45.7,40.4,35.4,94,72,50,30.52,30.38,2,1,10,0.00
2013-5-4,63.0,49.9,35.6,46.3,39.8,33.8,96,71,39,30.38,30.29,8,1,0,0.00
2013-5-21,63.6,57.4,49.7,60.5,54.8,48.0,96,91,81,30.00,29.90,1,0,11,0.05
2013-5-22,57.8,53.4,49.6,55.5,51.8,48.5,97,94,87,30.04,29.88,1,0,7,1.31
2013-5-23,74.3,60.1,51.8,69.6,58.6,51.0,98,95,83,29.94,29.79,2,0,7,0.41
2013-5-24,71.3,63.7,51.6,68.2,61.6,50.2,98,93,79,29.81,29.62,2,0,11,1.34
2013-5-25,52.1,48.7,40.9,51.0,47.8,39.6,100,96,95,29.82,29.67,1,1,12,0.97
2013-5-26,60.6,47.6,37.9,46.0,40.5,36.6,96,79,56,30.03,29.66,3,1,19,0.20
2013-5-27,72.8,55.1,37.8,46.3,40.4,36.0,95,64,28,30.14,30.04,2,1,12,0.00
2013-5-28,74.5,55.3,38.7,50.7,43.0,37.1,96,70,32,30.22,30.14,5,0,7,0.00
2013-5-29,62.6,55.6,49.1,61.0,54.2,46.8,97,95,89,30.17,29.97,1,0,2,0.37
2013-5-30,90.5,72.7,57.1,71.8,63.8,56.3,99,78,42,30.04,29.96,7,0,0,0.00
2013-5-31,92.3,70.8,63.7,72.8,65.8,62.0,96,86,50,30.05,29.99,3,0,0,0.00
2013-6-1,95.1,80.5,64.6,71.3,66.7,62.4,96,67,36,29.93,29.79,2,0,10,0.00
2013-6-2,91.6,79.2,68.5,73.0,68.2,64.6,95,71,42,29.83,29.66,4,1,15,0.09
2013-6-3,78.2,69.3,61.4,68.8,63.3,49.0,97,83,53,29.82,29.70,1,0,6,0.14
2013-6-4,71.9,61.0,49.9,50.3,46.6,43.2,82,61,39,30.05,29.78,10,1,10,0.00
2013-6-5,79.3,61.5,49.9,53.6,46.6,40.4,86,63,28,30.16,30.05,8,0,8,0.00
2013-6-6,74.6,61.3,51.3,57.9,52.9,49.3,94,76,51,30.17,30.09,4,0,5,0.00
2013-6-7,57.5,54.9,53.0,55.4,53.3,51.1,100,94,86,30.11,30.00,4,0,0,0.30
2013-6-8,54.6,52.8,52.1,54.0,52.0,51.3,100,97,97,29.87,29.63,1,0,6,0.93